Zurück zum Katalog

H-2A R/B

AktivHEO
NORAD 49337·ROCKET BODY·🇯🇵 Japan

Gestartet Oct 26, 2021 von Tanegashima Space Center

Loading…

Nächste Überflüge (nächste 24 Stunden)

TLE

AktuellSource: Space-Track

Epoche: Sep 12, 2026, 11:51 UTC

1 49337U 21096B   26255.49379692  .00005615  00000-0  90095-3 0  9996
2 49337  31.7823  95.4811 6771843 218.0794  66.0416  2.95534750 45560

Verfolge H-2A R/B in Echtzeit mit AllMySat

Download on the App Store